Regional Weather Roundup
Issued by NWS

Home | Current Version | Previous Version | Graphics & Text | Print | Product List | Glossary On
Versions: 1 2 3 4 5 6 7 8 9 10 11 12 13 14 15 16 17 18 19 20 21 22 23 24 25 26 27 28 29 30 31 32 33 34 35 36 37 38 39 40 41 42 43 44 45 46 47 48 49 50
550
ASUS44 KJAN 290503
RWRMS

MISSISSIPPI HOURLY WEATHER ROUNDUP
NATIONAL WEATHER SERVICE JACKSON MS
1200 AM CDT SUN MAR 29 2015

NOTE: "FAIR: INDICATES FEW OR NO CLOUDS BELOW 12,000 FEET WITH NO
SIGNIFICANT WEATHER AND/OR OBSTRUCTIONS TO VISIBILITY.

MSZ001>002-007>008-010>013-018>021-025>028-034>036-290600-
NORTHWEST MISSISSIPPI

CITY           SKY/WX    TMP DP  RH WIND       PRES   REMARKS
CLARKSDALE       N/A     37  34  87 NE5       30.31F WCI  34
CLEVELAND      FAIR      39  34  81 E6        30.29S
GREENWOOD      CLEAR     39  30  70 E7        30.29F WCI  34
GREENVILLE     CLEAR     42  32  67 E7        30.27F
OLIVE BRANCH   MOCLDY    36  32  87 CALM      30.32F
OXFORD         MOCLDY    37  30  75 E3        30.33F
TUNICA         CLEAR     37  32  81 E6        30.32F WCI  33
$$

MSZ003>006-009-014>017-022>024-029>033-037>039-290600-
NORTHEAST MISSISSIPPI

CITY           SKY/WX    TMP DP  RH WIND       PRES   REMARKS
COLUMBUS AFB   PTCLDY    40  31  70 NE5       30.32F
CORINTH        FAIR      34  28  80 CALM      30.33R
GOLDN TRIANGLE CLOUDY    41  30  65 NE6       30.31F
STARKVILLE     FAIR      34  32  93 CALM      30.32F
TUPELO         CLOUDY    41  32  70 NE3       30.33S
$$

MSZ040-058-290600-
CENTRAL MISSISSIPPI

CITY           SKY/WX    TMP DP  RH WIND       PRES   REMARKS
JACKSON INTL   CLEAR     43  33  68 E7        30.29R
JACKSON HAWKNS CLEAR     44  33  65 E9        30.29R
MERIDIAN KEY   CLEAR     41  30  65 CALM      30.31R
MERIDIAN NAS   NOT AVBL
RAYMOND        FAIR      45  39  81 E7        30.28R
VICKSBURG      LGT RAIN  48  35  60 E14       30.26S
$$

MSZ059>079-290600-
SOUTH MISSISSIPPI

CITY           SKY/WX    TMP DP  RH WIND       PRES   REMARKS
BROOKHAVEN     FAIR      46  37  71 CALM      30.27S
HATTIESBURG    CLEAR     46  36  68 CALM      30.32R
MCCOMB         PTCLDY    51  38  60 E6        30.24S
NATCHEZ        CLEAR     54  37  54 E9        30.22S
PINE BELT      CLEAR     43  30  61 CALM      30.31R
$$

MSZ080>082-290600-
COASTAL MISSISSIPPI

CITY           SKY/WX    TMP DP  RH WIND       PRES   REMARKS
BILOXI         CLEAR     53  44  73 E9        30.26S
PASCAGOULA     CLEAR     49  39  68 NE5       30.28R
GULFPORT       CLEAR     51  45  79 CALM      30.26S
$$



USA.gov is the U.S. government's official web portal to all federal, state and local government web resources and services.